Location: Julian California
(33.0790°N, 116.6010°W)
Time: 15:05:40
(UTC-08:00)

Cosmos 2263 - Pass Details

Date: 12 July 2018
Orbit: 832 x 865 km, 70.9° (Epoch: 12 November)

Event Time Altitude Azimuth Distance (km) Brightness Sun altitude
Rises 20:49:05 0° 201° (SSW) 3,356 7.2 -10.2°
Reaches altitude 10° 20:51:30 10° 202° (SSW) 2,426 6.5 -10.6°
Maximum altitude 20:57:04 83° 291° (WNW) 841 4.3 -11.5°
Drops below altitude 10° 21:02:41 10° 19° (NNE) 2,448 6.8 -12.5°
Sets 21:05:09 0° 20° (NNE) 3,390 7.6 -12.9°
